This is the latest recevied weather packets stored in our database for station/object KI4BSX. If no packets are shown the sender has not sent any weather packets the latest 10 day(s).
| Time | Temp. | Humidity | Pressure | Rain* | Wind** | Luminosity | Snow |
|---|---|---|---|---|---|---|---|
| 1778121620 | 18.33° C | 96% | 1016 hPa | 0 mm | - | - | - |
| 1778121316 | 18.33° C | 96% | 1015.9 hPa | 1.78 mm | - | - | - |
| 1778121014 | 18.33° C | 96% | 1015.4 hPa | 4.83 mm | - | - | - |
| 1778120710 | 18.33° C | 96% | 1015.4 hPa | 7.11 mm | - | - | - |
| 1778120401 | 18.33° C | 95% | 1015.4 hPa | 11.94 mm | - | - | - |
| 1778120096 | 18.33° C | 95% | 1015.5 hPa | 16.76 mm | - | - | - |
| 1778119794 | 18.33° C | 95% | 1015.6 hPa | 22.86 mm | - | - | - |
| 1778119491 | 18.33° C | 95% | 1016.4 hPa | 15.49 mm | - | - | - |
| 1778119187 | 18.33° C | 95% | 1016.2 hPa | 6.1 mm | - | - | - |
| 1778118886 | 18.33° C | 94% | 1016.5 hPa | 4.32 mm | - | - | - |
| 1778118583 | 18.33° C | 94% | 1016.1 hPa | 3.05 mm | - | - | - |
| 1778118279 | 18.33° C | 94% | 1016.4 hPa | 3.05 mm | - | - | - |
| 1778117975 | 18.33° C | 94% | 1015.6 hPa | 3.05 mm | - | - | - |
| 1778117672 | 18.33° C | 93% | 1016.2 hPa | 6.6 mm | - | - | - |
| 1778117370 | 18.33° C | 93% | 1016.2 hPa | 7.87 mm | - | - | - |
| 1778117066 | 18.33° C | 93% | 1016 hPa | 3.05 mm | - | - | - |
| 1778116762 | 18.33° C | 92% | 1016.2 hPa | 1.27 mm | - | - | - |
| 1778116460 | 18.33° C | 92% | 1016 hPa | 3.05 mm | - | - | - |
| 1778116154 | 18.33° C | 92% | 1016.1 hPa | 1.78 mm | - | - | - |
| 1778115849 | 18.89° C | 91% | 1016 hPa | 1.27 mm | - | - | - |
| 1778115547 | 18.89° C | 91% | 1016.1 hPa | 3.05 mm | - | - | - |
| 1778115244 | 18.89° C | 90% | 1016.2 hPa | 1.78 mm | - | - | - |
| 1778114940 | 18.89° C | 90% | 1016.2 hPa | 4.32 mm | - | - | - |
| 1778114637 | 18.89° C | 89% | 1016.4 hPa | 22.86 mm | - | - | - |
| 1778114335 | 19.44° C | 88% | 1016.5 hPa | 37.85 mm | - | - | - |
* Rain latest hour (hover to see other rain measurements)
** Current wind speed in m/s (hover to see current wind gust speed)